Regional Weather Roundup
Issued by NWS

Home | Current Version | Previous Version | Graphics & Text | Print | Product List | Glossary On
Versions: 1 2 3 4 5 6 7 8 9 10 11 12 13 14 15 16 17 18 19 20 21 22 23 24 25 26 27
000
ASUS45 KPSR 020510
RWRAZ

ARIZONA HOURLY REGIONAL WEATHER ROUNDUP
NATIONAL WEATHER SERVICE PHOENIX AZ
1000 PM MST THU DEC 01 2016

NOTE: FAIR INDICATES FEW OR NO CLOUDS BELOW 12,000 FEET WITH NO
SIGNIFICANT WEATHER AND/OR OBSTRUCTIONS TO VISIBILITY.

AZZ001>003-036-020600-
NORTHWEST ARIZONA

CITY           SKY/WX    TMP DP  RH WIND       PRES   REMARKS
BULLHEAD CITY  MOCLDY    55  19  24 N6        29.94S
KINGMAN        CLOUDY    38  18  44 E7        29.95S WCI  33
$$

AZZ004>008-015-016-018-020600-
NORTH CENTRAL ARIZONA

CITY           SKY/WX    TMP DP  RH WIND       PRES   REMARKS
GRAND CANYON   MOCLDY    23  16  74 CALM      29.97R
PRESCOTT       CLOUDY    33  24  69 S3        29.93S
FLAGSTAFF      MOCLDY    24  17  74 CALM      29.94R
PAYSON         CLOUDY    37  18  44 E3        29.95S
PAGE           CLOUDY    38  16  40 CALM      29.97R
$$

AZZ009>014-017-020600-
NORTHEAST ARIZONA

CITY           SKY/WX    TMP DP  RH WIND       PRES   REMARKS
WINSLOW        CLOUDY    30  20  66 SW3       29.95S
SAINT JOHNS    CLOUDY    28  19  69 S3        29.93R
WINDOW ROCK    MOCLDY    25  16  68 CALM      29.96R
SHOW LOW       CLOUDY    28  16  59 SW3       29.95S
$$

AZZ023-020600-
GREATER PHOENIX AREA

CITY           SKY/WX    TMP DP  RH WIND       PRES   REMARKS
PHOENIX        MOCLDY    53  27  36 CALM      29.90S
BUCKEYE        CLOUDY    46  30  53 NE5       29.92F
LUKE AFB       MOCLDY    50  32  49 CALM      29.89S
DEER VALLEY    MOCLDY    48  29  47 CALM      29.91R
SCOTTSDALE     MOCLDY    52  28  39 CALM      29.92S
MESA-GATEWAY   PTCLDY    45  28  53 E5        29.92S
$$

AZZ027-028-020600-
SOUTHWEST MARICOPA COUNTY AND PINAL COUNTY

CITY           SKY/WX    TMP DP  RH WIND       PRES   REMARKS
CASA GRANDE    NOT AVBL
GILA BEND      PTCLDY    46  27  48 SE8       29.91S
$$

AZZ503-504-507>509-020600-
SOUTHEAST ARIZONA

CITY           SKY/WX    TMP DP  RH WIND       PRES   REMARKS
TUCSON         PTCLDY    48  20  32 S3        29.93F
DAVIS-MONTHAN  CLOUDY    45  21  38 S5        29.92S
NOGALES        CLOUDY    46   5  18 S5        29.92F
SIERRA VISTA   CLOUDY    47   9  21 E3        29.93S
DOUGLAS        PTCLDY    44  14  29 NE5       29.92F
SAFFORD        PTCLDY    46  20  35 MISG      29.90R
$$

AZZ020-021-025-026-031-020600-
SOUTHWEST ARIZONA

CITY           SKY/WX    TMP DP  RH WIND       PRES   REMARKS
YUMA           MOCLDY    58  19  22 N5        29.91F
$$

CAZ031-033-041-043-047-048-061-020600-
SOUTHERN CALIFORNIA

CITY           SKY/WX    TMP DP  RH WIND       PRES   REMARKS
DOWNTOWN L.A.  CLEAR     55  39  54 CALM      29.94R
L.A. AIRPORT   PTCLDY    57  35  43 N6        29.94R
SAN DIEGO      MOCLDY    59  50  72 CALM      29.96S
BURBANK        CLEAR     54  32  43 NW7       29.94R
ONTARIO        MOCLDY    52  47  83 CALM      29.94R
RIVERSIDE      CLEAR     52  48  86 SW3       29.94S
PALM SPRINGS   CLOUDY    57  29  34 CALM      29.95S
EL CENTRO NAS  MOCLDY    53  27  36 E5        29.93S
IMPERIAL       CLOUDY    56  30  37 CALM      29.91F
BLYTHE         MOCLDY    50  29  44 N5        29.92F
NEEDLES        MOCLDY    51  17  26 W7        29.93F
$$

NVZ020-UTZ003-020600-
SOUTHERN NEVADA-UTAH

CITY           SKY/WX    TMP DP  RH WIND       PRES   REMARKS
LAS VEGAS      CLOUDY    52  20  28 CALM      29.96R
SALT LAKE CITY CLOUDY    32  28  85 N6        30.11R WCI  26
$$

NMZ009-TXZ055-020600-
NEW MEXICO-WEST TEXAS

CITY           SKY/WX    TMP DP  RH WIND       PRES   REMARKS
ALBUQUERQUE    CLOUDY    35  14  42 CALM      29.97R
EL PASO        CLEAR     44  24  45 N6        29.92S
$$


........................KEY........................
SKY/WX - SKY CONDITION/WEATHER
TMP    - TEMPERATURE IN FAHRENHEIT
DP     - DEW POINT IN FAHRENHEIT
RH     - RELATIVE HUMIDITY IN PERCENT
WIND   - DIRECTION AND SPEED IN MILES PER HOUR (MPH)
VRB    - VARIABLE WIND DIRECTION
PRES   - MEAN SEA LEVEL PRESSURE IN INCHES OF MERCURY
         F - FALLING PRESSURE   R - RISING PRESSURE
         S - STEADY PRESSURE
VSB    - VISIBILITY IN MILES
HX     - HEAT INDEX IN FAHRENHEIT
WCI    - WIND CHILL INDEX IN FAHRENHEIT
TC     - TEMPERATURE IN CELSIUS WHICH IS ALSO KNOWN AS
         TEMPERATURE IN CENTIGRADE
AFB    - AIR FORCE BASE
         LUKE AFB IS LUKE AIR FORCE BASE
         DAVIS-MONTHAN IS DAVIS-MONTHAN AIR FORCE BASE
NAS    - NAVAL AIR STATION
         EL CENTRO NAS IS EL CENTRO NAVAL AIR STATION
N/A    - NOT AVAILABLE





USA.gov is the U.S. government's official web portal to all federal, state and local government web resources and services.